Wind_Speed
41 43 46 48 51 52 51 49 49 49 50 51 52 54 55 56 56 56 56 55 55 55 56 57 58 60 61 62 63 63 63 63 61 56 53 50 49 49 48 48 46 45 44
42 44 47 49 50 50 50 49 48 49 50 51 52 54 55 55 55 55 54 54 55 56 57 58 59 61 61 61 60 58 56 54 51 47 46 44 43 43 42 41 40 38 38
45 46 48 50 51 51 51 49 48 48 49 51 52 53 53 53 53 53 54 55 56 57 58 59 60 59 58 56 53 49 47 45 43 41 39 38 37 37 36 35 34 33 31
47 48 49 51 51 50 49 48 47 48 50 51 52 52 52 52 52 53 54 56 57 58 59 58 57 55 52 48 44 42 40 38 38 36 33 32 31 30 29 27 26 25 24
48 49 51 50 49 49 48 48 48 48 49 50 50 50 51 51 52 54 55 57 57 57 55 54 51 48 44 41 38 37 35 34 32 29 26 25 24 23 21 19 18 18 18
49 49 50 51 50 49 47 47 47 48 49 49 49 49 50 52 53 55 55 56 55 53 51 48 45 42 39 36 34 32 31 28 25 22 20 18 17 15 14 13 12 12 13
49 49 50 50 48 46 46 46 47 47 47 48 48 50 51 53 54 54 53 52 51 48 45 42 39 37 34 31 29 27 24 20 17 15 13 12 10 9 8 7 7 7 8
49 49 48 46 45 45 45 45 46 46 46 48 49 51 52 52 52 51 49 47 45 43 39 36 33 30 27 25 22 19 15 12 9 8 7 5 3 3 3 3 4 4 5
47 46 45 44 42 43 44 44 45 46 47 49 50 50 50 49 48 46 44 42 39 37 34 30 26 24 21 17 14 11 7 5 3 2 0 1 2 3 3 3 3 2 3
44 43 42 41 41 42 43 44 45 47 48 49 49 48 46 44 42 40 38 36 34 31 28 24 20 16 13 10 7 4 1 1 2 4 5 5 5 4 4 3 2 2 1
40 39 39 39 40 41 43 44 46 47 47 47 46 44 41 38 36 34 32 30 28 25 21 16 12 9 6 4 2 3 4 6 7 7 6 6 6 5 4 4 4 3 2
36 36 37 38 39 41 43 45 45 45 45 43 41 39 35 33 31 29 27 25 22 17 13 9 6 3 3 5 6 7 8 8 8 8 7 7 7 6 6 6 6 6 6
32 34 36 37 40 42 43 43 43 42 41 39 36 33 30 27 26 25 23 19 15 11 7 4 4 5 7 10 11 10 10 10 10 9 8 8 8 8 8 9 9 10 10
31 34 36 38 40 41 42 41 40 38 35 32 30 27 25 23 22 20 17 14 10 6 4 5 7 9 12 12 12 11 11 10 10 9 9 9 9 10 11 12 12 12 13
32 34 37 39 39 39 38 37 35 32 29 27 24 22 20 19 17 15 12 9 6 4 6 8 11 12 13 13 12 11 11 10 9 9 10 11 12 14 14 15 15 16 16
33 35 37 37 37 36 34 31 28 25 23 22 20 18 16 15 13 10 8 6 4 6 9 11 12 13 14 13 12 12 11 10 10 10 12 14 15 16 16 17 17 18 18
33 35 35 34 33 31 28 26 23 21 20 18 16 14 12 11 9 7 6 5 6 9 11 13 14 15 14 13 13 12 11 11 11 13 15 17 18 18 17 18 18 18 18
32 33 32 30 28 26 24 22 20 19 18 16 13 11 9 8 7 5 5 6 8 11 12 14 15 15 15 14 13 12 12 12 14 16 18 19 19 19 19 18 18 18 18
30 29 28 26 23 21 20 19 17 16 15 14 11 9 7 6 5 6 7 8 10 12 13 15 15 15 15 14 13 13 13 14 15 18 19 20 20 20 19 19 19 18 18
27 26 24 22 20 19 18 17 16 15 13 12 10 8 6 6 7 8 9 10 11 13 14 15 15 15 14 13 13 13 14 15 17 18 20 20 20 20 19 19 18 18 17
25 23 22 20 18 17 17 16 15 13 12 11 9 7 7 8 9 10 11 12 13 13 15 15 15 14 14 13 13 14 14 16 18 19 20 20 19 19 18 17 17 16 16
24 23 21 19 17 17 16 15 14 13 11 11 10 8 9 10 11 12 13 13 14 14 15 15 14 14 13 12 13 14 15 16 18 19 20 19 18 17 16 16 15 14 14
24 23 21 19 18 17 16 16 14 12 11 11 11 11 11 12 13 13 14 14 14 14 15 14 14 13 12 12 13 14 15 16 17 18 19 18 17 16 15 14 13 12 12
25 24 22 21 19 18 17 16 15 13 12 12 12 12 13 14 15 15 16 15 15 15 14 14 13 12 12 12 12 13 14 16 17 17 17 17 16 15 14 13 13 12 12
28 26 24 23 22 20 18 17 16 14 13 13 13 14 14 15 16 17 17 16 16 15 14 13 12 11 11 11 12 12 13 14 16 16 16 16 15 14 13 13 12 12 12
31 29 28 26 25 23 21 19 18 16 15 14 15 15 16 17 18 18 18 17 17 15 14 13 12 12 11 11 11 12 12 12 13 13 14 14 13 13 12 11 11 11 11
Wind_Direction
293 295 297 298 298 296 297 298 298 297 298 298 297 297 297 297 297 296 295 295 294 294 294 294 294 293 293 292 292 291 290 289 288 287 285 283 281 279 277 275 273 271 268
295 296 298 297 296 296 297 299 299 299 299 299 298 297 297 297 296 296 295 295 296 296 296 296 296 296 295 294 293 292 291 290 288 287 285 283 281 278 277 275 273 270 266
295 297 297 296 295 297 300 300 299 299 298 298 298 298 298 297 297 297 297 297 298 298 298 299 299 298 297 296 295 293 291 291 290 289 287 284 281 279 276 274 272 269 264
295 295 294 294 295 298 301 301 299 299 299 299 299 298 298 298 299 299 299 300 300 300 301 301 300 299 298 296 295 293 293 292 292 290 287 284 281 278 276 273 269 266 261
294 293 292 292 295 300 301 300 299 299 300 300 299 299 300 300 301 301 302 302 303 303 303 302 301 300 298 296 295 295 294 294 293 290 288 284 281 278 275 270 265 261 256
290 289 289 291 296 299 299 299 300 301 301 301 301 302 303 303 304 304 304 305 305 304 304 303 302 300 298 297 296 295 295 294 292 290 288 285 282 277 273 266 260 254 250
285 285 287 291 295 298 299 300 301 302 302 303 304 305 305 306 306 307 307 307 306 306 305 304 303 301 299 298 297 297 296 294 291 289 288 285 280 276 268 256 250 245 241
280 283 287 291 295 299 300 302 303 304 305 306 307 308 308 309 309 309 309 308 308 308 307 306 305 303 301 300 299 298 299 297 291 289 289 286 272 252 234 224 217 221 234
279 285 290 295 298 301 303 304 305 306 308 309 310 310 311 311 311 311 310 310 310 310 310 309 308 306 305 304 302 301 301 294 285 285 254 124 127 139 149 158 176 204 225
282 287 293 298 302 304 305 307 308 309 310 311 312 313 313 313 312 312 313 313 314 313 312 311 309 308 308 310 311 309 296 159 127 120 117 116 116 124 134 137 141 153 223
286 292 298 302 305 307 308 309 310 311 312 313 313 314 314 314 314 316 316 317 317 316 316 315 315 318 324 338 33 99 114 117 117 114 112 112 112 116 120 117 119 116 82
294 300 304 307 309 310 311 312 312 313 314 315 315 316 316 317 318 320 321 321 322 323 323 327 336 6 54 83 101 110 114 113 111 108 108 108 107 107 104 102 107 96 76
303 306 309 311 312 313 313 314 315 315 316 317 318 319 320 321 322 323 325 327 330 335 344 12 60 84 95 102 105 108 108 106 105 104 102 103 103 101 101 104 103 93 81
309 312 314 314 315 315 316 316 317 317 318 320 321 322 323 324 325 328 330 335 342 360 46 78 93 102 108 106 105 105 104 104 102 100 98 100 101 104 107 106 103 96 89
316 317 317 317 318 319 319 319 320 320 321 322 324 325 326 327 330 333 338 346 3 60 88 99 106 110 111 108 106 103 102 100 98 96 97 102 107 110 110 108 105 101 95
321 321 321 321 322 322 323 323 324 325 326 326 328 329 331 334 338 344 353 12 59 97 104 107 111 113 112 108 104 101 96 93 93 96 104 109 112 113 112 110 107 102 96
326 325 325 325 326 327 328 330 331 332 332 333 334 336 339 344 351 1 18 54 95 111 113 113 116 116 113 108 102 96 91 90 94 103 110 113 114 114 115 114 109 103 98
330 329 329 329 330 332 335 336 337 338 340 342 343 345 349 358 10 27 60 86 109 118 119 119 120 118 115 107 100 94 90 93 101 110 115 116 116 114 114 114 110 106 102
335 335 336 337 338 340 342 344 345 346 348 352 356 360 8 23 42 66 84 96 114 124 125 125 123 120 114 106 101 95 92 98 106 114 119 119 117 115 113 111 108 106 104
342 343 344 345 347 349 352 354 355 356 359 4 10 20 41 57 73 86 94 102 115 126 129 128 126 121 115 108 102 96 95 101 110 116 120 122 120 117 114 110 107 104 102
353 353 354 355 358 0 1 3 5 8 13 18 24 43 67 77 88 96 97 104 113 125 132 131 128 123 117 110 104 98 97 104 111 116 120 122 121 118 114 111 107 104 101
3 4 4 6 8 9 10 12 16 22 28 35 45 68 83 87 96 100 100 104 111 120 131 133 131 127 121 113 107 103 101 107 112 115 119 120 120 118 115 112 107 104 102
12 12 14 15 15 16 19 21 25 33 42 50 61 78 89 92 96 100 102 104 109 117 126 131 131 130 126 119 112 107 103 107 113 117 118 118 117 116 114 112 108 104 101
20 21 22 23 24 25 27 30 35 44 53 61 70 84 93 95 98 100 102 103 107 115 122 127 130 130 128 125 120 113 108 109 112 115 117 117 116 116 114 111 107 104 102
28 29 30 31 31 33 35 38 44 52 61 70 79 88 95 97 99 100 101 101 104 110 116 121 125 128 130 130 126 121 117 115 115 116 116 117 117 116 115 112 107 103 100
35 36 37 37 38 39 42 46 51 57 66 75 84 91 96 100 100 99 100 100 100 103 109 113 117 121 126 130 132 130 127 124 122 120 117 117 116 114 113 110 107 104 102
Height
5757 5753 5748 5743 5738 5733 5728 5723 5718 5713 5708 5702 5696 5689 5683 5677 5670 5663 5655 5648 5642 5635 5628 5622 5616 5609 5603 5595 5588 5582 5575 5569 5565 5562 5556 5551 5547 5544 5543 5541 5541 5541 5541
5746 5741 5737 5732 5727 5722 5716 5711 5706 5701 5695 5689 5683 5676 5670 5663 5656 5649 5642 5635 5628 5621 5614 5607 5600 5593 5586 5578 5571 5564 5558 5552 5548 5546 5541 5537 5533 5531 5529 5528 5528 5528 5528
5735 5730 5725 5720 5715 5710 5705 5699 5694 5689 5683 5676 5670 5664 5657 5650 5643 5636 5629 5621 5614 5606 5599 5591 5584 5576 5569 5562 5555 5549 5544 5539 5535 5532 5529 5525 5522 5519 5518 5517 5517 5517 5517
5723 5719 5714 5709 5704 5698 5693 5688 5682 5676 5670 5664 5657 5651 5644 5636 5629 5622 5615 5607 5599 5592 5583 5575 5567 5560 5554 5547 5542 5536 5532 5528 5524 5520 5517 5514 5512 5510 5509 5508 5508 5509 5510
5711 5707 5702 5697 5692 5687 5682 5676 5670 5664 5658 5652 5645 5638 5630 5623 5616 5608 5600 5592 5585 5577 5569 5560 5553 5546 5540 5535 5531 5526 5522 5518 5514 5511 5508 5506 5504 5503 5502 5502 5502 5503 5504
5700 5695 5690 5685 5680 5675 5670 5664 5659 5652 5646 5639 5632 5625 5617 5610 5602 5594 5586 5578 5570 5562 5555 5547 5540 5534 5529 5525 5520 5516 5513 5509 5506 5504 5502 5500 5499 5498 5498 5498 5499 5500 5501
5688 5683 5678 5673 5668 5664 5659 5653 5647 5641 5634 5627 5619 5612 5604 5597 5589 5581 5572 5564 5556 5549 5542 5535 5529 5524 5519 5515 5512 5508 5505 5503 5501 5499 5498 5497 5496 5496 5496 5496 5497 5498 5499
5677 5672 5667 5662 5657 5653 5647 5641 5635 5629 5622 5614 5607 5599 5591 5583 5576 5567 5559 5551 5544 5537 5531 5525 5520 5515 5511 5508 5505 5502 5500 5498 5497 5496 5495 5495 5495 5495 5495 5496 5496 5497 5498
5665 5661 5656 5651 5646 5641 5636 5630 5623 5616 5609 5602 5594 5587 5579 5571 5563 5556 5548 5541 5534 5528 5522 5517 5512 5508 5505 5502 5500 5498 5497 5496 5496 5495 5495 5495 5495 5496 5496 5496 5497 5497 5498
5655 5651 5646 5641 5636 5630 5624 5618 5611 5604 5597 5590 5583 5576 5568 5560 5553 5546 5539 5532 5526 5520 5515 5511 5507 5504 5501 5499 5498 5497 5496 5496 5496 5496 5497 5497 5497 5497 5498 5498 5498 5498 5498
5646 5641 5636 5631 5625 5619 5613 5607 5600 5593 5586 5579 5572 5566 5559 5551 5545 5538 5532 5526 5520 5515 5510 5507 5504 5502 5500 5498 5497 5497 5497 5497 5498 5498 5499 5499 5499 5500 5500 5500 5499 5499 5499
5637 5632 5627 5621 5615 5609 5603 5596 5589 5582 5575 5569 5562 5556 5549 5543 5537 5532 5526 5520 5515 5511 5507 5505 5503 5501 5500 5499 5499 5499 5499 5500 5500 5501 5501 5502 5502 5502 5502 5502 5502 5501 5501
5629 5624 5618 5612 5606 5599 5593 5586 5579 5572 5566 5559 5553 5547 5542 5537 5532 5527 5522 5517 5513 5509 5506 5504 5503 5502 5502 5502 5502 5502 5503 5503 5504 5504 5505 5505 5505 5505 5505 5505 5505 5505 5504
5621 5616 5610 5604 5597 5590 5583 5576 5570 5563 5557 5551 5546 5541 5537 5532 5527 5523 5519 5515 5512 5509 5507 5506 5505 5504 5505 5505 5506 5506 5507 5507 5507 5508 5508 5508 5508 5508 5508 5509 5509 5509 5508
5614 5608 5602 5595 5588 5581 5574 5568 5562 5556 5550 5546 5541 5537 5533 5528 5524 5520 5517 5514 5511 5510 5509 5508 5508 5508 5509 5509 5510 5510 5511 5511 5511 5511 5511 5511 5512 5512 5513 5513 5514 5514 5513
5608 5601 5594 5587 5580 5573 5567 5562 5555 5550 5546 5541 5537 5533 5529 5526 5522 5519 5516 5514 5512 5511 5511 5511 5511 5512 5513 5513 5514 5514 5514 5514 5514 5514 5515 5515 5516 5517 5518 5519 5519 5519 5519
5601 5594 5587 5580 5574 5567 5561 5556 5551 5546 5542 5538 5534 5530 5527 5524 5521 5519 5517 5515 5514 5514 5514 5514 5515 5516 5517 5518 5518 5518 5518 5518 5518 5518 5519 5520 5521 5522 5523 5524 5525 5525 5525
5596 5589 5582 5575 5568 5562 5557 5552 5547 5543 5539 5535 5531 5528 5526 5523 5521 5519 5518 5517 5516 5516 5517 5517 5518 5520 5521 5522 5522 5522 5522 5522 5522 5522 5523 5525 5526 5527 5529 5530 5530 5531 5531
5591 5584 5577 5570 5565 5559 5554 5549 5545 5541 5537 5533 5530 5527 5525 5523 5522 5520 5519 5519 5518 5519 5520 5521 5523 5524 5525 5526 5526 5526 5526 5526 5526 5527 5529 5530 5532 5533 5534 5535 5536 5537 5537
5587 5580 5574 5568 5562 5557 5552 5548 5544 5539 5536 5532 5529 5527 5525 5524 5523 5522 5521 5521 5521 5522 5524 5525 5527 5528 5529 5530 5531 5531 5531 5531 5531 5532 5534 5535 5537 5539 5540 5541 5542 5543 5543
5585 5578 5572 5566 5561 5556 5552 5547 5543 5539 5536 5533 5530 5528 5526 5525 5525 5524 5524 5524 5524 5525 5527 5529 5531 5532 5534 5535 5535 5535 5536 5536 5537 5538 5539 5541 5543 5544 5545 5547 5548 5548 5549
5584 5578 5572 5566 5561 5556 5552 5548 5543 5540 5536 5534 5531 5530 5529 5528 5527 5527 5527 5528 5528 5529 5531 5533 5535 5536 5538 5539 5540 5540 5541 5541 5542 5543 5544 5546 5548 5549 5551 5552 5553 5554 5554
5585 5578 5572 5567 5562 5557 5552 5548 5544 5541 5538 5536 5534 5532 5531 5531 5531 5531 5531 5531 5532 5533 5535 5537 5539 5540 5542 5543 5544 5545 5546 5546 5547 5548 5550 5551 5553 5554 5555 5556 5557 5558 5559
5586 5580 5574 5568 5563 5558 5554 5550 5546 5543 5540 5538 5536 5535 5535 5534 5534 5535 5535 5536 5536 5538 5539 5541 5542 5544 5546 5547 5548 5549 5550 5551 5552 5553 5555 5556 5557 5559 5560 5561 5562 5563 5563
5589 5582 5577 5571 5566 5561 5556 5552 5548 5545 5543 5541 5540 5539 5538 5538 5539 5539 5539 5540 5541 5542 5543 5545 5546 5548 5549 5551 5552 5553 5555 5556 5557 5558 5560 5561 5562 5563 5564 5565 5566 5567 5567
5593 5587 5581 5575 5570 5565 5560 5556 5552 5549 5546 5545 5544 5543 5543 5543 5543 5544 5544 5545 5546 5547 5548 5549 5550 5551 5553 5554 5556 5557 5559 5560 5562 5563 5564 5565 5566 5568 5569 5570 5570 5571 5572